{"data":{"norad_id":60505,"intl_designator":"2024-149AP","name":"FLOCK 4BE-24","alt_names":[],"object_type":"PAYLOAD","status":"ACTIVE","operator":null,"country":"US","launch_date":"2024-08-16","launch_site_code":"AFWTR","launch_vehicle":null,"mission":null,"orbit_class":"UNKNOWN","rcs_meters":null,"size_class":null,"mass_kg":null,"dimensions":null,"purposes":["earth_obs"],"wikipedia_slug":null,"has_3d_model":false,"image_url":null,"decayed_at":null,"tle_current":{"epoch":"2026-05-24T19:36:10.053792Z","epoch_age_seconds":84237,"freshness":"FRESH","line1":"1 60505U 24149AP  26144.81678303  .00017275  00000+0  40585-3 0  9995","line2":"2 60505  97.3712 228.9635 0003509  34.6753 325.4723 15.42074045 98765","mean_motion":15.42074045,"eccentricity":0.0003509,"inclination_deg":97.3712,"raan_deg":228.9635,"arg_perigee_deg":34.6753,"mean_anomaly_deg":325.4723,"bstar":0.00040585,"rev_number":9876,"period_min":93.380729976556,"perigee_km":437.59652246585,"apogee_km":442.38148329467,"semimajor_km":6818.1260028803,"source":"CELESTRAK","updated_at":"2026-05-25T13:38:13.305595Z"}}}